Regional Weather Roundup
Issued by NWS Pendleton, OR

Home | Current Version | Previous Version | Text Only | Print | Product List | Glossary On
Versions: 1 2 3 4 5 6 7 8 9 10 11 12 13 14 15 16 17 18 19 20 21 22 23 24 25 26 27 28 29 30 31 32 33 34 35 36 37 38 39 40 41 42 43 44 45 46 47 48 49 50
000
ASUS46 KPDT 240025
RWRPDT
PENDLETON REGIONAL WEATHER ROUNDUP
NATIONAL WEATHER SERVICE PENDLETON OREGON
400 PM PST TUE JAN 23 2018

NOTE: FAIR INDICATES FEW OR NO CLOUDS BELOW 12,000 FEET WITH NO
SIGNIFICANT WEATHER AND/OR OBSTRUCTIONS TO VISIBILITY.

# INDICATES UNOFFICIAL STATION AND DATA

WAZ520-240110-
EAST SLOPES OF WASHINGTON CASCADES

CITY            SKY/WX      TMP DP  RH  WIND    PRES   REMARKS
#BULLFROG       N/A         33  32  96  CALM    N/A
#CLE ELUM HS    N/A         33  32  96  E2      29.89
#EASTON DOT     N/A         31  31  100 N2      N/A
#ELK HTS DOT    N/A         32  32  100 E5      N/A
#GLENWOOD       N/A         33  32  96  CALM    30.01F
#NELSON 3SW     N/A         30  29  96  CALM    30.21S
#NILE           N/A         32  31  96  CALM    29.25S
#TEANAWAY 4NE   N/A         34  34  100 CALM    N/A
#TROUT LAKE 1NE N/A         32  31  96  CALM    30.02
#TROUT LAKE 1E  N/A         32  31  96  CALM    29.97
$$

WAZ521-240110-
SIMCOE HIGHLANDS

CITY            SKY/WX      TMP DP  RH  WIND    PRES   REMARKS
#BICKLETON HS   N/A         33  32  96  SW7     29.57S
#CENTERVILLE 1SWN/A         35  32  89  CALM    29.98S
#GOLDENDALE 1NE N/A         37  31  79  N1      N/A
#GOLDENDALE 4W  N/A         37  27  67  E3      29.98F
#GOODNOE HILLS  N/A         40  36  85  SE2     29.88F
#LYLE 6NE       N/A         35  34  96  CALM    30.02R
#PITT 4SE       N/A         33  32  96  E3      30.03S
$$

WAZ026-240110-
KITTITAS VALLEY

CITY            SKY/WX      TMP DP  RH  WIND    PRES   REMARKS
#ELLENSBURG CWU N/A         34  32  92  E2      29.95
#ELLENSBURG 3NE N/A         34  33  96  E6      28.03S
#ELLENSBURG 1E  N/A         33  32  96  CALM    30.07S
#KITTITAS 3S    N/A         33  32  96  W1      30.00S
#MANASTASH RDG  N/A         32  32  100 CALM    N/A
#ROCKY CYN DOT  N/A         33  33  100 SE6     N/A
#RYEGRASS DOT   N/A         29  28  96  CALM    N/A
$$

WAZ027-240110-
YAKIMA VALLEY

CITY            SKY/WX      TMP DP  RH  WIND    PRES   REMARKS
SUNNYSIDE AP    CLOUDY      39  36  89  E9      29.98F
YAKIMA AIRPORT  CLOUDY      37  34  89  CALM    29.98S FOG
YAKIMA-VAGABOND MOCLDY      34  32  92  CALM    29.95S
#DONALD 2NE     N/A         36  25  64  CALM    28.83S
#GRANDVIEW      N/A         38  35  89  CALM    30.02F
#MOXEE 2E       N/A         33  N/A N/A CALM    29.94S
#NACHES 2SW     N/A         34  33  96  CALM    29.97S
#OUTLOOK DOT    N/A         40  37  89  E3      N/A
#PARKER DOT     N/A         36  34  92  CALM    29.98
#TERRACE HTS    N/A         34  32  92  CALM    29.98
#TOPPENISH      N/A         36  33  89  CALM    29.93S
#I82 S UMTANUM RN/A         34  32  92  E1      N/A
#UNION GAP DOT  N/A         35  33  92  CALM    30.02
#W YAKIMA       N/A         33  32  96  CALM    30.02S
#WHITE SWAN 5E  N/A         36  34  92  CALM    30.03
#WILEY CITY 3W  N/A         34  30  85  CALM    29.93S
#ZILLAH DOT     N/A         36  35  96  CALM    N/A
$$

WAZ028-240110-
LOWER COLUMBIA BASIN...WASHINGTON

CITY            SKY/WX      TMP DP  RH  WIND    PRES   REMARKS
PASCO           LGT RAIN    39  36  89  CALM    30.03  FOG
6HR MIN TEMP:   36; 6HR MAX TEMP:   40; 6HR PCP:  0.03;

PROSSER AWOS    N/A         37  37  100 E10     30.02F
RICHLAND AWOS   LGT SNOW    39  37  92  CALM    30.02F
#BENTON CITY    N/A         36  34  92  CALM    29.93F
#CONNELL 5N     N/A         39  38  96  SE2     30.05S
#CONNELL 5NW    N/A         39  37  92  SE2     30.00
#ELTOPIA 6NW    N/A         37  36  96  CALM    28.98
#KAHLOTUS       N/A         40  37  89  CALM    30.05
#KENNEWICK 3S   N/A         38  35  89  CALM    30.04
#PATERSON       N/A         39  37  92  CALM    30.00F
#PROSSER DOT    N/A         38  37  96  E2      30.01S
#SAGEMOOR 2W    N/A         37  35  92  E1      29.91
#TOUCHET 2S     N/A         45  39  79  S15     29.99F WCI 38
#WEST PASCO     N/A         39  37  92  CALM    30.01F
$$

WAZ029-240110-
FOOTHILLS OF THE BLUES...WASHINGTON

CITY            SKY/WX      TMP DP  RH  WIND    PRES   REMARKS
WALLA WALLA AP  LGT RAIN    47  36  65  S13     30.01  WCI 41
6HR MIN TEMP:   44; 6HR MAX TEMP:   52; 6HR PCP:  0.01;

#CLYDE 6NW      N/A         42  38  86  S7      30.04
#DELANEY DOT    N/A         46  36  68  N1      30.05
#LOWDEN 2SE     N/A         48  39  71  SE13    29.98S WCI 43
#PLEASANT VIEW 1N/A         40  37  89  SE7     30.09F
#PRESCOTT       N/A         45  40  82  CALM    30.05S
#WHITMAN COLLEGEN/A         46  38  73  SE1     30.07F
#WAITSBURG 5S   N/A         42  37  82  SE12    30.13S WCI 35
#WAITSBURG 6SSE N/A         42  36  79  E7      29.87F
#WAITSBURG 8N   N/A          0  N/A N/A S9      29.74S
#WALLA WALLA 5E N/A         47  38  71  SE23G30 N/A    WCI 39
#WHITMAN MISSIONN/A         46  39  76  CALM    30.05
$$

WAZ030-240110-
BLUE MOUNTAINS...WASHINGTON

CITY            SKY/WX      TMP DP  RH  WIND    PRES   REMARKS
#DIXIE 5SE      N/A         38  33  82  E15     29.89  WCI 29
$$

ORZ009-041-WAZ024-240110-
COLUMBIA RIVER GORGE

CITY            SKY/WX      TMP DP  RH  WIND    PRES   REMARKS
HOOD RIVER AP   LGT RAIN    36  34  92  CALM    30.00F
THE DALLES AP   CLOUDY      40  37  89  N8      30.00
6HR MIN TEMP:   39; 6HR MAX TEMP:   42; 6HR PCP:  0.01;

#ARLINGTON AIRPON/A         38  37  96  E3      30.03S
#ARLINGTON HS   N/A         41  38  89  CALM    29.92S
#CELILO DOT     N/A         42  37  82  S16     N/A    WCI 34
#LYLE           N/A         38  36  92  NW2     30.02F
#MARYHILL       N/A         39  N/A N/A CALM    N/A
#MURDOCK        N/A         38  37  96  NW3     29.97F
#RUFUS DOT      N/A         41  N/A N/A NE3     N/A
#SMITHVILLE     N/A         39  37  92  NW3     29.95S

$$

ORZ510-240110-
NORTH CENTRAL OREGON

CITY            SKY/WX      TMP DP  RH  WIND    PRES   REMARKS
#ANTELOPE       N/A         46  31  56  SW3     29.91S
#COW CYN RST AREN/A         45  N/A N/A S16     N/A    WCI 38
#DUFUR          N/A         37  36  96  CALM    29.98S
#DUFUR 9E       N/A         37  36  96  CALM    30.05
#KENT DOT       N/A         44  26  49  SE8     N/A
#MAUPIN SCHOOL  N/A         41  36  82  CALM    30.01S
#SHANIKO 5WSW   N/A         42  N/A N/A S20     N/A    WCI 33
#TYGH VALLEY 2NEN/A         40  37  89  CALM    29.99
#WAPANITIA AIRPON/A         40  37  89  CALM    30.02
#WASCO DOT      N/A         40  37  89  E3      N/A
#WASCO 5NE      N/A         38  27  64  CALM    30.01
$$

ORZ511-240110-
CENTRAL OREGON

CITY            SKY/WX      TMP DP  RH  WIND    PRES   REMARKS
BEND AIRPORT    CLOUDY      48  27  44  S15     29.97R WCI 42
PRINEVILLE AP   CLOUDY      45  28  51  SE9     29.97S
REDMOND AIRPORT CLOUDY      49  28  44  S13     29.95  WCI 44
6HR MIN TEMP:   38; 6HR MAX TEMP:   50;

#ASHWOOD SCHOOL N/A         48  29  47  SE7     29.91
#BEND 1SW       N/A         41  32  70  SW1     N/A
#BEND-AWBREY    N/A         44  32  62  S6      30.02S
#BEND-KIM LN    N/A         44  36  73  E3      29.96R
#CULVER         N/A         48  32  54  E9      29.83
#CULVER 8W      N/A         46  35  65  CALM    29.95F
#LAKE BILLY CHINN/A         46  N/A N/A CALM    30.02F
#POWELL BUTTE 3EN/A         46  28  49  S6      N/A
#POWELL BUTTE   N/A         46  24  42  S20     29.91S WCI 38
#PRINEVILLE     N/A         45  29  53  CALM    30.12
#PRINEVILLE 3N  N/A         44  32  62  E8      30.02S
#WARM SPRINGS   N/A         50  34  54  CALM    29.81F

$$


ORZ509-240110-
EAST SLOPES OF OREGON CASCADES

CITY            SKY/WX      TMP DP  RH  WIND    PRES   REMARKS
SISTERS AWOS    N/A         43  37  79  CALM    29.91
#BLUE BOX PASS  N/A         33  N/A N/A S16     N/A    WCI 23
#CAMP SHERMAN   N/A         41  37  86  S1      30.06S
#LA PINE DOT    N/A         42  27  55  SE3     N/A
#LA PINE 4NW    N/A         40  28  62  CALM    30.13
#LAVA BUTTE DOT N/A         40  21  46  SE3     N/A
#SISTERS ODOT   N/A         41  38  89  CALM    N/A
#SISTERS 3N     N/A         42  33  70  NE2     29.97R
#SUNRIVER       N/A         40  31  70  S3      30.07S
#TUMALO 3W      N/A         43  32  65  S12     29.87S WCI 37
#WANOGA BUTTE D N/A         30  30  100 W12     N/A    WCI 20

$$

ORZ044-240110-
LOWER COLUMBIA BASIN...OREGON

CITY            SKY/WX      TMP DP  RH  WIND    PRES   REMARKS
HERMISTON       CLOUDY      39  38  96  N3      29.99
6HR MIN TEMP:   34; 6HR MAX TEMP:   40; 6HR PCP:  0.02;

#BOARDMAN SCHOOLN/A         40  38  92  CALM    29.99F
#ECHO 8SW       N/A         39  39  100 CALM    30.00F
#I-84 EX 198 DOTN/A         46  37  71  NE26G35 N/A    WCI 37
#IONE SCHOOL    N/A         41  27  57  CALM    30.02
#UMATILLA       N/A         40  36  85  CALM    29.94
$$

ORZ507-240110-
NORTHERN FOOTHILLS OF THE BLUES

CITY            SKY/WX      TMP DP  RH  WIND    PRES   REMARKS
PENDLETON AIRPT LGT RAIN    43  38  82  SE6     29.99
6HR MIN TEMP:   42; 6HR MAX TEMP:   47; 6HR PCP:  0.14;

#ADAMS 3WNW     N/A         39  37  92  SE6     30.03
#ATHENA         N/A         40  35  82  SE9     30.06
#CAYUSE         N/A         40  38  92  SE35G48 29.99S WCI 28
#HELIX 3N       N/A         39  35  85  SE26G35 30.00  WCI 28
#HOLDMAN 5SE    N/A         43  40  89  SE7     29.98S
#HOLDMAN 6E     N/A         39  38  96  SE6     29.83S
#M-F GROVE ELEM N/A         44  34  68  SE6     29.96S
#M-FREEWATER 5SEN/A         44  36  73  E18G29  30.01  WCI 36
#PENDLETON DNTN N/A         42  36  79  CALM    N/A
#PDT AQUATIC CTRN/A         44  38  79  NE1     29.97F
#PDT SUNRIDGE   N/A         46  39  76  S14     30.00F WCI 40
#PENDLETON 6SE  N/A         44  37  76  SE24G33 29.97S WCI 35
#PENDLETON 7NW  N/A         44  38  79  SE14G24 31.36S WCI 37
#PILOT ROCK 1S  N/A         45  31  58  SE15G26 29.99S WCI 38
#PILOT ROCK     N/A         45  37  73  CALM    29.99S
#TUTUILLA       N/A         42  36  79  SE9     30.04
#UMAPINE 2E     N/A         46  39  76  SE15    29.97R WCI 40

$$

ORZ508-240110-
SOUTHERN FOOTHILLS OF THE BLUES

CITY            SKY/WX      TMP DP  RH  WIND    PRES   REMARKS
LEXINGTON       CLOUDY      46  34  63  SE23G36 29.99S WCI 38
#AJAX           N/A         36  29  75  N5      30.10
#CONDON 5W      N/A         40  32  73  CALM    29.89F
#FOSSIL SCHOOL  N/A         44  33  65  SE1     29.90
#HEPPNER EOC    N/A         44  34  68  SE10    29.94
#HEPPNER 4NE    N/A         42  34  73  SW7     30.01
#LEXINGTON 2SE  N/A         49  36  61  CALM    29.93S
#MIKKALO        N/A         38  35  89  CALM    30.07S
#OLEX 4N        N/A         38  36  92  NE2     29.96
#RUGGS 5NE      N/A         41  32  70  N8      30.14S
#RUGGS 2SW      N/A         40  33  76  S15G26  30.03  WCI 32

$$

ORZ502-503-240110-
BLUE MOUNTAINS

CITY            SKY/WX      TMP DP  RH  WIND    PRES   REMARKS
MEACHAM         SNOW        31  29  92  CALM    30.02S VSB 1/4
#BATTLE MTN DOT N/A         31  30  96  S16     N/A    WCI 20
#GRANITE        N/A         29  23  78  CALM    29.68S
#GREENHORN 9SW  N/A         32  31  96  E7      26.28
#HARDMAN 10S    N/A         31  30  96  S6      30.24F
#LADD CYN SMT   N/A         31  29  92  SE18G28 N/A    WCI 19
#LADD CREEK ODOTN/A         33  30  89  S12     N/A    WCI 24
#LONG CREEK HS  N/A         38  34  85  SW12G24 30.01S WCI 30
#N POWDER DOT   N/A         32  28  85  SE24G35 N/A    WCI 19
#PIKES PEAK     N/A         36  33  89  S30G38  27.99S WCI 23
#SUMMERVILLE 5NWN/A         32  30  92  SW8     28.01F
#TOLLGATE       N/A         27  26  96  SW7     30.03
#TROY SCHOOL    N/A         40  36  85  CALM    29.99
#UKIAH          N/A         35  33  92  CALM    30.07
#WESTON 4E      N/A         33  32  96  SE15G24 30.06S WCI 23
$$

ORZ505-240110-
JOHN DAY BASIN

CITY            SKY/WX      TMP DP  RH  WIND    PRES   REMARKS
JOHN DAY        CLOUDY      38  32  79  E5      30.05F
#ANTELOPE 9ESE  N/A         49  31  50  W1      N/A
#DAYVILLE SCHOOLN/A         42  30  62  SE2     30.00F
#MITCHELL 8NW   N/A         40  27  59  E5      30.08
#MONUMENT HS    N/A         39  33  79  W3      29.99F
#MT. VERNON 5SE N/A         37  28  70  NE3     29.99R
#WINLOCK        N/A         45  38  76  N5      29.95F
$$

ORZ506-240110-
OCHOCO AND JOHN DAY HIGHLANDS

CITY            SKY/WX      TMP DP  RH  WIND    PRES   REMARKS
#HORSE RIDGE DO N/A         43  24  47  SE16G24 N/A    WCI 35
#IZEE 6NW       N/A         37  28  70  S1      N/A
#PAULINA ODOT   N/A         36  29  75  N2      N/A
#PINE MTN OBS   N/A         31  26  81  S21G33  N/A    WCI 18
#PRAIRIE CITY   N/A         38  31  76  CALM    30.21F
#SENECA         N/A         35  N/A N/A SE5     N/A
#SENECA 9NW     N/A         33  29  85  CALM    30.23
$$

ORZ049-240110-
GRANDE RONDE VALLEY

CITY            SKY/WX      TMP DP  RH  WIND    PRES   REMARKS
LA GRANDE       LGT RAIN    35  30  82  S16G29  30.11  WCI 25
#COVE SCHOOL    N/A         40  30  67  E7      30.07
#COVE 6NW       N/A         38  31  76  S9      30.16F
#ELGIN 3N       N/A         33  28  82  S10     30.05S
#ELGIN 1E       N/A         37  32  82  SW5     N/A
#IMBLER SCHOOL  N/A         34  30  85  S7      30.04S
#ISLAND CITY 4N N/A         46  45  96  SW3     29.91
#LADD CYN DOT   N/A         34  32  92  S29G40  N/A    WCI 21
#UNION 1S       N/A         37  31  79  S5      30.19
$$

ORZ050-240110-
WALLOWA COUNTY

CITY            SKY/WX      TMP DP  RH  WIND    PRES   REMARKS
JOSEPH AIRPORT  LGT SNOW    32  27  82  N3      30.03
#ENTERPRISE HS  N/A         33  29  85  CALM    30.06
#IMNAHA SCHOOL  N/A         45  30  55  N14G24  30.07  WCI 39
#JOSEPH         N/A         32  23  69  N1      30.20F
#JOSEPH 3N      N/A         31  26  81  CALM    30.05S
#JOSEPH 3W      N/A         32  20  61  CALM    29.85R
#LOSTINE        N/A         31  28  88  NW1     30.00S
#LOSTINE 3SE    N/A         31  27  85  N3      30.09S
#MT HOWARD 8000 N/A         22  20  92  SW20G47 29.91  WCI  7
#PROMISE 1S     N/A         33  30  89  CALM    30.25
#WALLOWA LAKE   N/A         35  28  75  S8      30.03S
#WALLOWA SCHOOL N/A         31  28  88  CALM    30.03



$$



USA.gov is the U.S. government's official web portal to all federal, state and local government web resources and services.